EZY12Q EHRD-EGAC

Flight info

Callsign EZY12Q
Flight time 1h 18m
Altitude 24000
Route TULIP L74 MONIL/N0448F380 P1 SUPUR L602 NALAX L46 RIMTO DCT VAMEB DCT IRSEA DCT BLACA DCT MAGEE
Aircraft A320/M-SDE3FGHIRWY/LB1

Departure

Time 2026-04-24 19:01
Airport Rotterdam The Hague Airport (EHRD)

Arrival

Time 2026-04-24 20:19
Airport George Best Belfast City Airport (EGAC)
Time Latitude Longitude Altitude Speed Heading
2026-04-24 18:54 51.94993 4.43449 -6 ft 0 kts 327°
2026-04-24 18:55 51.94995 4.43446 -6 ft 3 kts 327°
2026-04-24 18:55 51.95020 4.43428 -6 ft 3 kts 351°
2026-04-24 18:55 51.95036 4.43444 -6 ft 5 kts 45°
2026-04-24 18:56 51.95056 4.43491 -6 ft 5 kts 55°
2026-04-24 18:56 51.95072 4.43530 -6 ft 4 kts 56°
2026-04-24 18:56 51.95106 4.43566 -6 ft 15 kts 357°
2026-04-24 18:56 51.95200 4.43481 -5 ft 12 kts 327°
2026-04-24 18:57 51.95238 4.43413 -5 ft 7 kts 272°
2026-04-24 18:57 51.95220 4.43350 -5 ft 6 kts 239°
2026-04-24 18:57 51.95202 4.43301 -5 ft 5 kts 238°
2026-04-24 18:57 51.95187 4.43262 -5 ft 4 kts 238°
2026-04-24 18:58 51.95169 4.43220 -5 ft 5 kts 236°
2026-04-24 18:58 51.95141 4.43139 -5 ft 12 kts 244°
2026-04-24 18:58 51.95115 4.43049 -5 ft 0 kts 245°
2026-04-24 18:58 51.95113 4.43043 -5 ft 2 kts 245°
2026-04-24 18:59 51.95110 4.43028 -5 ft 3 kts 250°
2026-04-24 18:59 51.95121 4.42937 -5 ft 9 kts 310°
2026-04-24 18:59 51.95167 4.42885 -5 ft 7 kts 327°
2026-04-24 18:59 51.95206 4.42850 -5 ft 5 kts 352°
2026-04-24 19:00 51.95229 4.42881 -5 ft 4 kts 50°
2026-04-24 19:00 51.95268 4.42976 -5 ft 36 kts 57°
2026-04-24 19:00 51.95583 4.43758 -4 ft 126 kts 57°
2026-04-24 19:00 51.96167 4.45200 271 ft 169 kts 56°
2026-04-24 19:01 51.96797 4.46847 1071 ft 173 kts 59°
2026-04-24 19:01 51.97437 4.48606 1497 ft 191 kts 59°
2026-04-24 19:01 51.98199 4.50494 1787 ft 216 kts 45°
2026-04-24 19:01 51.99503 4.51804 2407 ft 229 kts 16°
2026-04-24 19:02 52.00574 4.52030 2628 ft 231 kts 354°
2026-04-24 19:02 52.02449 4.50635 2738 ft 227 kts 313°
2026-04-24 19:02 52.03218 4.48434 2743 ft 226 kts 283°
2026-04-24 19:02 52.03218 4.45911 2743 ft 226 kts 253°
2026-04-24 19:03 52.02433 4.43691 2745 ft 226 kts 223°
2026-04-24 19:03 52.01216 4.42119 2745 ft 228 kts 217°
2026-04-24 19:03 51.99953 4.40562 2746 ft 228 kts 217°
2026-04-24 19:03 51.98691 4.39009 2746 ft 228 kts 217°
2026-04-24 19:04 51.97462 4.37393 2744 ft 228 kts 226°
2026-04-24 19:04 51.96560 4.35337 2745 ft 230 kts 245°
2026-04-24 19:04 51.96076 4.32705 2748 ft 253 kts 262°
2026-04-24 19:04 51.95849 4.29847 2745 ft 257 kts 263°
2026-04-24 19:05 51.95613 4.26974 2745 ft 258 kts 262°
2026-04-24 19:05 51.95370 4.24107 2746 ft 258 kts 262°
2026-04-24 19:05 51.95121 4.21211 2760 ft 260 kts 262°
2026-04-24 19:05 51.94870 4.18292 3600 ft 261 kts 262°
2026-04-24 19:06 51.94619 4.15369 4626 ft 264 kts 262°
2026-04-24 19:06 51.94469 4.12390 5518 ft 270 kts 272°
2026-04-24 19:06 51.94791 4.09384 5867 ft 271 kts 289°
2026-04-24 19:06 51.95628 4.06654 5983 ft 271 kts 305°
2026-04-24 19:07 51.96892 4.04386 6146 ft 274 kts 316°
2026-04-24 19:07 51.98247 4.02269 7086 ft 275 kts 315°
2026-04-24 19:07 51.99175 4.00799 7725 ft 277 kts 315°
2026-04-24 19:07 52.01016 3.97864 8915 ft 282 kts 315°
2026-04-24 19:08 52.02418 3.95616 9775 ft 286 kts 315°
2026-04-24 19:08 52.03860 3.93297 10343 ft 302 kts 315°
2026-04-24 19:08 52.05411 3.90804 10642 ft 326 kts 315°
2026-04-24 19:08 52.07057 3.88154 11191 ft 338 kts 315°
2026-04-24 19:09 52.08738 3.85448 11939 ft 343 kts 315°
2026-04-24 19:09 52.10443 3.82708 12649 ft 347 kts 315°
2026-04-24 19:09 52.12241 3.80068 12928 ft 349 kts 324°
2026-04-24 19:09 52.14383 3.78180 13436 ft 353 kts 339°
2026-04-24 19:10 52.16733 3.77182 14168 ft 356 kts 352°
2026-04-24 19:10 52.19220 3.77144 14866 ft 360 kts
2026-04-24 19:10 52.21666 3.78105 15547 ft 364 kts 16°
2026-04-24 19:10 52.24164 3.78787 16175 ft 367 kts 358°
2026-04-24 19:11 52.26669 3.77978 16803 ft 370 kts 340°
2026-04-24 19:11 52.29100 3.76530 17446 ft 373 kts 340°
2026-04-24 19:11 52.31536 3.75117 18360 ft 364 kts 340°
2026-04-24 19:11 52.33860 3.73807 19687 ft 344 kts 341°
2026-04-24 19:12 52.36059 3.72584 20974 ft 323 kts 341°
2026-04-24 19:12 52.38103 3.71451 22166 ft 305 kts 341°
2026-04-24 19:12 52.40086 3.70349 22931 ft 301 kts 341°
2026-04-24 19:12 52.42073 3.69237 23490 ft 303 kts 341°
2026-04-24 19:13 52.43428 3.68476 23826 ft 306 kts 341°
2026-04-24 19:13 52.46190 3.66920 23998 ft 329 kts 341°
2026-04-24 19:13 52.48409 3.65670 24012 ft 348 kts 341°
2026-04-24 19:13 52.50765 3.64342 24010 ft 367 kts 341°
2026-04-24 19:14 52.53239 3.62946 24009 ft 385 kts 341°
2026-04-24 19:14 52.55826 3.61484 24009 ft 401 kts 341°
2026-04-24 19:14 52.58486 3.59978 24010 ft 407 kts 341°
2026-04-24 19:14 52.61133 3.58474 24008 ft 409 kts 341°
2026-04-24 19:15 52.63855 3.56929 24009 ft 409 kts 341°
2026-04-24 19:15 52.66514 3.55422 24008 ft 409 kts 341°
2026-04-24 19:15 52.69206 3.53895 24012 ft 409 kts 341°
2026-04-24 19:15 52.71896 3.52365 24008 ft 409 kts 341°
2026-04-24 19:16 52.77275 3.49289 24008 ft 409 kts 340°
2026-04-24 19:16 52.79963 3.47746 24009 ft 409 kts 340°
2026-04-24 19:16 52.82648 3.46203 24005 ft 409 kts 340°
2026-04-24 19:17 52.85332 3.44661 24003 ft 409 kts 340°
2026-04-24 19:17 52.88020 3.43117 24001 ft 408 kts 340°
2026-04-24 19:17 52.90699 3.41574 23999 ft 408 kts 340°
2026-04-24 19:17 52.93387 3.40020 23998 ft 408 kts 340°
2026-04-24 19:18 52.96031 3.38489 23997 ft 408 kts 340°
2026-04-24 19:18 52.98715 3.36937 23997 ft 408 kts 340°
2026-04-24 19:18 53.01397 3.35388 23997 ft 409 kts 340°
2026-04-24 19:18 53.04066 3.33775 23995 ft 408 kts 336°
2026-04-24 19:19 53.06526 3.31437 23995 ft 408 kts 323°
2026-04-24 19:19 53.08624 3.28278 23994 ft 407 kts 311°
2026-04-24 19:19 53.10268 3.24464 23993 ft 406 kts 299°
2026-04-24 19:19 53.11349 3.20179 24772 ft 394 kts 286°
2026-04-24 19:20 53.11974 3.15918 25984 ft 374 kts 283°
2026-04-24 19:20 53.12538 3.11808 27198 ft 354 kts 283°
2026-04-24 19:20 53.13068 3.07910 28197 ft 340 kts 282°
2026-04-24 19:20 53.13581 3.04087 28774 ft 338 kts 282°
2026-04-24 19:21 53.14088 3.00259 29193 ft 339 kts 282°
2026-04-24 19:21 53.14594 2.96404 29589 ft 341 kts 282°
2026-04-24 19:21 53.15102 2.92531 29952 ft 344 kts 282°
2026-04-24 19:21 53.15613 2.88619 30308 ft 347 kts 282°
2026-04-24 19:22 53.15954 2.86011 30543 ft 348 kts 282°
2026-04-24 19:22 53.16632 2.80760 31000 ft 352 kts 282°
2026-04-24 19:22 53.17146 2.76763 31332 ft 354 kts 282°
2026-04-24 19:22 53.17664 2.72731 31665 ft 356 kts 282°
2026-04-24 19:23 53.18184 2.68683 32002 ft 359 kts 282°
2026-04-24 19:23 53.18710 2.64597 32316 ft 362 kts 282°
2026-04-24 19:23 53.19238 2.60484 32641 ft 364 kts 282°
2026-04-24 19:23 53.19764 2.56348 32957 ft 366 kts 282°
2026-04-24 19:24 53.20293 2.52175 33249 ft 369 kts 282°
2026-04-24 19:24 53.20822 2.47983 33539 ft 371 kts 282°
2026-04-24 19:24 53.21346 2.43816 33829 ft 373 kts 282°
2026-04-24 19:24 53.21879 2.39568 34118 ft 375 kts 282°
2026-04-24 19:25 53.22418 2.35297 34372 ft 378 kts 282°
2026-04-24 19:25 53.22962 2.30996 34637 ft 380 kts 282°
2026-04-24 19:25 53.23504 2.26674 34899 ft 381 kts 282°
2026-04-24 19:25 53.24043 2.22327 35158 ft 383 kts 281°
2026-04-24 19:26 53.24581 2.17962 35386 ft 386 kts 281°
2026-04-24 19:26 53.25125 2.13562 35618 ft 388 kts 281°
2026-04-24 19:26 53.25671 2.09143 35851 ft 389 kts 281°
2026-04-24 19:26 53.26214 2.04741 36086 ft 391 kts 281°
2026-04-24 19:27 53.26758 2.00314 36316 ft 392 kts 281°
2026-04-24 19:27 53.27307 1.95834 36492 ft 395 kts 281°
2026-04-24 19:27 53.27855 1.91326 36692 ft 397 kts 281°
2026-04-24 19:27 53.28403 1.86791 36878 ft 399 kts 281°
2026-04-24 19:28 53.28951 1.82239 37070 ft 400 kts 281°
2026-04-24 19:28 53.29501 1.77668 37254 ft 402 kts 281°
2026-04-24 19:28 53.30053 1.73077 37437 ft 404 kts 281°
2026-04-24 19:28 53.30594 1.68527 37582 ft 406 kts 281°
2026-04-24 19:29 53.31698 1.59216 37920 ft 409 kts 281°
2026-04-24 19:29 53.32254 1.54529 38002 ft 413 kts 281°
2026-04-24 19:30 53.33444 1.45089 38778 ft 423 kts 283°
2026-04-24 19:30 53.34138 1.40293 38576 ft 425 kts 284°
2026-04-24 19:30 53.34857 1.35506 38373 ft 424 kts 284°
2026-04-24 19:31 53.36303 1.25956 38296 ft 424 kts 284°
2026-04-24 19:31 53.37702 1.16436 38289 ft 424 kts 284°
2026-04-24 19:32 53.39067 1.06840 38294 ft 424 kts 283°
2026-04-24 19:32 53.40414 0.97223 38289 ft 424 kts 284°
2026-04-24 19:33 53.41769 0.87594 38293 ft 425 kts 284°
2026-04-24 19:33 53.43117 0.78014 38291 ft 425 kts 284°
2026-04-24 19:34 53.44464 0.68366 38296 ft 425 kts 284°
2026-04-24 19:34 53.45803 0.58690 38297 ft 425 kts 284°
2026-04-24 19:35 53.47131 0.49012 38274 ft 426 kts 284°
2026-04-24 19:35 53.48435 0.39387 38283 ft 426 kts 284°
2026-04-24 19:36 53.49746 0.29681 38295 ft 426 kts 284°
2026-04-24 19:36 53.51064 0.19966 38300 ft 427 kts 284°
2026-04-24 19:37 53.52368 0.10243 38296 ft 427 kts 284°
2026-04-24 19:37 53.53667 0.00510 38296 ft 427 kts 284°
2026-04-24 19:38 53.54944 -0.09160 38280 ft 427 kts 284°
2026-04-24 19:38 53.56220 -0.18905 38282 ft 427 kts 284°
2026-04-24 19:39 53.57486 -0.28673 38285 ft 427 kts 284°
2026-04-24 19:39 53.58748 -0.38439 38285 ft 427 kts 284°
2026-04-24 19:40 53.59997 -0.48149 38284 ft 427 kts 283°
2026-04-24 19:40 53.61248 -0.57940 38288 ft 428 kts 283°
2026-04-24 19:41 53.62492 -0.67733 38289 ft 428 kts 283°
2026-04-24 19:41 53.63516 -0.75887 38293 ft 428 kts 283°
2026-04-24 19:42 53.64742 -0.85711 38296 ft 428 kts 283°
2026-04-24 19:42 53.66155 -0.97124 38298 ft 428 kts 283°
2026-04-24 19:43 53.67363 -1.06941 38272 ft 428 kts 283°
2026-04-24 19:43 53.68362 -1.15108 38287 ft 428 kts 283°
2026-04-24 19:44 53.69556 -1.24929 38290 ft 427 kts 283°
2026-04-24 19:44 53.70741 -1.34762 38291 ft 427 kts 283°
2026-04-24 19:45 53.72034 -1.44532 38293 ft 426 kts 289°
2026-04-24 19:45 53.74034 -1.53928 38303 ft 426 kts 291°
2026-04-24 19:46 53.76044 -1.63345 38286 ft 426 kts 290°
2026-04-24 19:46 53.78027 -1.72703 38285 ft 426 kts 290°
2026-04-24 19:47 53.80014 -1.82125 38285 ft 425 kts 290°
2026-04-24 19:47 53.81990 -1.91553 38289 ft 425 kts 290°
2026-04-24 19:48 53.83968 -2.00992 38286 ft 425 kts 290°
2026-04-24 19:48 53.86904 -2.15162 38273 ft 425 kts 289°
2026-04-24 19:49 53.90798 -2.34023 38275 ft 425 kts 289°
2026-04-24 19:50 53.94654 -2.52988 38275 ft 425 kts 289°
2026-04-24 19:51 53.97526 -2.67162 38273 ft 425 kts 289°
2026-04-24 19:52 54.00373 -2.81436 38264 ft 425 kts 288°
2026-04-24 19:52 54.02080 -2.91063 38263 ft 426 kts 286°
2026-04-24 19:53 54.03632 -3.00778 38259 ft 426 kts 285°
2026-04-24 19:54 54.05963 -3.15280 38240 ft 426 kts 286°
2026-04-24 19:54 54.06760 -3.20146 37362 ft 428 kts 285°
2026-04-24 19:54 54.07582 -3.25079 35672 ft 440 kts 286°
2026-04-24 19:54 54.08411 -3.30072 34682 ft 435 kts 286°
2026-04-24 19:55 54.08948 -3.33345 33920 ft 433 kts 286°
2026-04-24 19:55 54.10026 -3.39957 32138 ft 433 kts 286°
2026-04-24 19:55 54.10820 -3.44850 31153 ft 425 kts 286°
2026-04-24 19:55 54.11598 -3.49663 30167 ft 418 kts 286°
2026-04-24 19:56 54.12360 -3.54401 29040 ft 412 kts 285°
2026-04-24 19:56 54.13097 -3.59026 27919 ft 407 kts 285°
2026-04-24 19:56 54.13828 -3.63662 26821 ft 403 kts 285°
2026-04-24 19:56 54.14548 -3.68270 25753 ft 400 kts 285°
2026-04-24 19:57 54.15258 -3.72845 24704 ft 398 kts 285°
2026-04-24 19:57 54.15972 -3.77392 23679 ft 396 kts 285°
2026-04-24 19:57 54.16690 -3.81947 22167 ft 401 kts 285°
2026-04-24 19:57 54.17435 -3.86583 20613 ft 409 kts 285°
2026-04-24 19:58 54.18183 -3.91155 20151 ft 389 kts 285°
2026-04-24 19:58 54.18900 -3.95515 19489 ft 376 kts 285°
2026-04-24 19:58 54.19589 -3.99705 18718 ft 368 kts 285°
2026-04-24 19:58 54.20280 -4.03884 17829 ft 363 kts 285°
2026-04-24 19:59 54.20954 -4.08008 16952 ft 358 kts 285°
2026-04-24 19:59 54.21605 -4.12082 16108 ft 353 kts 285°
2026-04-24 19:59 54.22236 -4.16102 15290 ft 348 kts 285°
2026-04-24 19:59 54.22849 -4.20080 14491 ft 344 kts 285°
2026-04-24 20:00 54.23444 -4.24021 13680 ft 340 kts 285°
2026-04-24 20:00 54.24032 -4.27914 12764 ft 337 kts 285°
2026-04-24 20:00 54.24628 -4.31773 11896 ft 334 kts 285°
2026-04-24 20:00 54.25222 -4.35594 11128 ft 330 kts 285°
2026-04-24 20:01 54.25817 -4.39399 10661 ft 330 kts 285°
2026-04-24 20:01 54.26398 -4.43117 10526 ft 317 kts 285°
2026-04-24 20:01 54.26958 -4.46698 10404 ft 306 kts 285°
2026-04-24 20:01 54.27490 -4.50098 10267 ft 296 kts 285°
2026-04-24 20:02 54.28014 -4.53468 9960 ft 291 kts 285°
2026-04-24 20:02 54.28535 -4.56806 9608 ft 289 kts 285°
2026-04-24 20:02 54.29052 -4.60123 9207 ft 288 kts 285°
2026-04-24 20:02 54.29567 -4.63425 8820 ft 287 kts 285°
2026-04-24 20:03 54.30081 -4.66706 8438 ft 285 kts 285°
2026-04-24 20:03 54.30594 -4.69967 8230 ft 284 kts 285°
2026-04-24 20:03 54.31107 -4.73240 8240 ft 285 kts 285°
2026-04-24 20:03 54.31615 -4.76476 8252 ft 285 kts 285°
2026-04-24 20:04 54.32129 -4.79761 8250 ft 286 kts 284°
2026-04-24 20:04 54.32654 -4.83056 8241 ft 287 kts 285°
2026-04-24 20:04 54.33185 -4.86362 8237 ft 288 kts 285°
2026-04-24 20:04 54.33716 -4.89668 8250 ft 288 kts 285°
2026-04-24 20:05 54.34247 -4.92978 8251 ft 288 kts 285°
2026-04-24 20:05 54.34777 -4.96287 8255 ft 288 kts 285°
2026-04-24 20:05 54.35307 -4.99599 8251 ft 288 kts 285°
2026-04-24 20:05 54.35837 -5.02915 8252 ft 288 kts 285°
2026-04-24 20:06 54.36365 -5.06223 8252 ft 288 kts 285°
2026-04-24 20:06 54.36894 -5.09536 8255 ft 288 kts 285°
2026-04-24 20:06 54.37415 -5.12804 8258 ft 288 kts 285°
2026-04-24 20:06 54.37943 -5.16118 8258 ft 288 kts 285°
2026-04-24 20:07 54.38300 -5.18361 8245 ft 288 kts 285°
2026-04-24 20:07 54.38737 -5.22816 8257 ft 287 kts 265°
2026-04-24 20:07 54.38463 -5.26203 8257 ft 287 kts 259°
2026-04-24 20:07 54.38112 -5.29567 8255 ft 287 kts 259°
2026-04-24 20:08 54.37756 -5.32941 8255 ft 287 kts 259°
2026-04-24 20:08 54.37401 -5.36315 8254 ft 288 kts 259°
2026-04-24 20:08 54.37061 -5.39703 8259 ft 289 kts 259°
2026-04-24 20:08 54.36722 -5.43101 8252 ft 289 kts 259°
2026-04-24 20:09 54.36387 -5.46455 8251 ft 289 kts 259°
2026-04-24 20:09 54.36043 -5.49896 8250 ft 289 kts 259°
2026-04-24 20:09 54.35710 -5.53223 7914 ft 286 kts 259°
2026-04-24 20:09 54.35373 -5.56578 7517 ft 285 kts 259°
2026-04-24 20:10 54.35038 -5.59916 7139 ft 283 kts 259°
2026-04-24 20:10 54.34704 -5.63229 6761 ft 281 kts 259°
2026-04-24 20:10 54.34371 -5.66512 6364 ft 279 kts 259°
2026-04-24 20:10 54.34041 -5.69776 5960 ft 277 kts 259°
2026-04-24 20:11 54.33715 -5.73019 5556 ft 275 kts 259°
2026-04-24 20:11 54.33393 -5.76241 5155 ft 273 kts 259°
2026-04-24 20:11 54.33219 -5.79424 4745 ft 273 kts 275°
2026-04-24 20:11 54.33795 -5.82485 4328 ft 272 kts 296°
2026-04-24 20:12 54.34687 -5.85326 4036 ft 270 kts 298°
2026-04-24 20:12 54.35612 -5.88142 4012 ft 272 kts 299°
2026-04-24 20:12 54.36540 -5.90970 4015 ft 271 kts 298°
2026-04-24 20:12 54.37464 -5.93787 4016 ft 271 kts 299°
2026-04-24 20:13 54.38389 -5.96612 4014 ft 271 kts 298°
2026-04-24 20:13 54.39304 -5.99403 4015 ft 261 kts 299°
2026-04-24 20:13 54.40172 -6.02058 4012 ft 252 kts 299°
2026-04-24 20:13 54.41072 -6.04631 4010 ft 251 kts 309°
2026-04-24 20:14 54.42432 -6.06366 4014 ft 249 kts 340°
2026-04-24 20:14 54.44131 -6.06742 4016 ft 248 kts
2026-04-24 20:14 54.45829 -6.06411 3791 ft 243 kts 15°
2026-04-24 20:14 54.47313 -6.05244 3534 ft 232 kts 43°
2026-04-24 20:15 54.48406 -6.03276 3131 ft 223 kts 45°
2026-04-24 20:15 54.49600 -6.01748 2820 ft 204 kts 36°
2026-04-24 20:15 54.50734 -6.00436 2564 ft 188 kts 36°
2026-04-24 20:15 54.51760 -5.99230 2304 ft 170 kts 37°
2026-04-24 20:16 54.52699 -5.98117 2077 ft 158 kts 37°
2026-04-24 20:16 54.53575 -5.97077 1870 ft 149 kts 38°
2026-04-24 20:16 54.54407 -5.96087 1670 ft 142 kts 38°
2026-04-24 20:16 54.55198 -5.95145 1478 ft 139 kts 37°
2026-04-24 20:17 54.55986 -5.94207 1302 ft 137 kts 37°
2026-04-24 20:17 54.57537 -5.92359 930 ft 135 kts 35°
2026-04-24 20:17 54.58303 -5.91445 740 ft 133 kts 35°
2026-04-24 20:18 54.58798 -5.90853 630 ft 129 kts 34°
2026-04-24 20:18 54.59778 -5.89682 395 ft 128 kts 33°
2026-04-24 20:18 54.60509 -5.88815 200 ft 127 kts 33°
2026-04-24 20:18 54.61232 -5.87946 53 ft 126 kts 34°
2026-04-24 20:19 54.61865 -5.87186 26 ft 79 kts 34°
2026-04-24 20:19 54.62191 -5.86797 24 ft 40 kts 34°
2026-04-24 20:19 54.62369 -5.86595 26 ft 23 kts 32°
2026-04-24 20:19 54.62475 -5.86519 25 ft 13 kts 65°
2026-04-24 20:20 54.62423 -5.86516 24 ft 10 kts 218°
2026-04-24 20:20 54.62356 -5.86600 24 ft 14 kts 214°
2026-04-24 20:20 54.62252 -5.86722 24 ft 20 kts 214°
2026-04-24 20:20 54.62129 -5.86870 22 ft 23 kts 216°
2026-04-24 20:21 54.61988 -5.87034 23 ft 26 kts 214°
2026-04-24 20:21 54.61880 -5.87165 25 ft 12 kts 211°
2026-04-24 20:21 54.61810 -5.87115 23 ft 12 kts 129°
2026-04-24 20:21 54.61771 -5.87021 23 ft 0 kts 126°
2026-04-24 20:22 54.61715 -5.87005 23 ft 15 kts 207°
2026-04-24 20:22 54.61644 -5.87087 23 ft 9 kts 215°
2026-04-24 20:23 54.61594 -5.87147 23 ft 8 kts 215°
2026-04-24 20:23 54.61586 -5.87157 23 ft 0 kts 215°
2026-04-24 20:23 54.61570 -5.87178 23 ft 5 kts 216°
2026-04-24 20:23 54.61537 -5.87174 23 ft 4 kts 155°
2026-04-24 20:24 54.61503 -5.87146 26 ft 5 kts 156°
2026-04-24 20:24 54.61499 -5.87144 25 ft 0 kts 156°